GS0511 Weather Reports


time (UTC)temp
C
wind
direction
speed
KPH
gust
KPH
rain 1hr
cm
rain 24hr
cm
rain mn
cm
humidity
%
barometer
mb
20260504204500 23 215 9.7 16.1 0.00 0.00 0.00 41 1003.9
20260504203000 22 225 11.3 22.5 0.00 0.00 0.00 41 1004.1
20260504201500 23 277 9.7 17.7 0.00 0.00 0.00 41 1004.2
20260504194500 22 223 11.3 29.0 0.00 0.00 0.00 41 1004.7
20260504193000 22 229 12.9 27.4 0.00 0.00 0.00 42 1004.9
20260504191500 22 234 11.3 24.1 0.00 0.00 0.00 43 1005.1
20260504190004 22 166 11.3 17.7 0.00 0.00 0.00 46 1005.4
20260504184500 22 250 11.3 20.9 0.00 0.00 0.00 45 1005.4
20260504183000 21 250 11.3 20.9 0.00 0.00 0.00 44 1005.7
20260504181500 21 271 12.9 27.4 0.00 0.00 0.00 47 1005.8
20260504180003 21 185 14.5 27.4 0.00 0.00 0.00 46 1005.9
20260504174500 21 212 11.3 20.9 0.00 0.00 0.00 49 1006.0
20260504173000 20 229 9.7 20.9 0.00 0.00 0.00 51 1006.1
20260504171500 20 225 11.3 24.1 0.00 0.00 0.00 51 1006.3
20260504081459 10 205 6.4 12.9 0.00 0.00 0.00 60 1008.4
20260504050001 10 225 1.6 3.2 0.00 0.00 0.00 61 1009.7
20260504044459 11 196 3.2 6.4 0.00 0.00 0.00 60 1009.7
20260504040007 11 202 3.2 6.4 0.00 0.00 0.00 59 1009.9
20260504034501 11 177 3.2 6.4 0.00 0.00 0.00 59 1009.9
20260504030005 12 210 6.4 17.7 0.00 0.00 0.00 56 1009.9
20260504024501 12 234 6.4 12.9 0.00 0.00 0.00 56 1009.9
20260504021502 11 232 6.4 12.9 0.00 0.00 0.00 58 1010.1
20260504020005 12 250 8.0 19.3 0.00 0.00 0.00 58 1010.1
20260504014501 11 281 6.4 24.1 0.00 0.00 0.00 59 1010.2
20260504013001 11 208 4.8 8.0 0.00 0.00 0.00 62 1010.1
20260504011501 11 215 3.2 8.0 0.00 0.00 0.00 67 1010.1
20260504004502 10 249 3.2 6.4 0.00 0.00 0.00 70 1010.4
20260504003001 10 287 1.6 6.4 0.00 0.00 0.00 71 1010.4
20260504001501 10 248 1.6 6.4 0.00 0.00 0.00 73 1010.7
20260504000006 10 271 3.2 9.7 0.00 0.00 0.00 74 1010.8
20260503233002 10 289 8.0 19.3 0.00 0.00 0.00 72 1010.6
20260503231502 11 294 12.9 30.6 0.00 0.00 0.00 69 1010.5
20260503224501 12 225 9.7 25.7 0.00 0.00 0.00 58 1010.3
20260503223001 12 277 11.3 24.1 0.00 0.00 0.00 59 1010.0
20260503221502 12 232 12.9 27.4 0.00 0.00 0.00 56 1010.2
20260503220006 12 252 9.7 29.0 0.00 0.00 0.00 54 1010.1
20260503214501 12 219 9.7 22.5 0.00 0.00 0.00 51 1010.0
20260503213001 12 263 9.7 27.4 0.00 0.00 0.00 52 1010.2
20260503210005 12 284 9.7 22.5 0.00 0.00 0.00 52 1010.2